COSMOS 2213

Satellite information

Favourite Embed

Satellite Type and Status

PAYLOADIN ORBIT

Key statistics

Satellite COSMOS 2213 at a glance.

Uptime

12107

Days in orbit

Revolutions

≈ 12.6

Per day

Orbit

LEO

Low Earth Orbit

Inclination

82.6

Latest

Satellite identification and parameters

Extended collection of information and parameters for COSMOS 2213.

Object identification

Identified? True

Debris? False

Object name: COSMOS 2213

International designator: 1992-068C

Object number (NORAD): 22184

Object ID (CCSDS): 22184

Country: COMMONWEALTH OF INDEPENDENT STATES (CIS)

Current information (Y/N): Y

RCS size: LARGE

Orbital parameters

Period: 114.05 minutes

Inclination: 82.5992 deg

SMA: 7790.341 km

Apoapsis: 1414.708 km

Periapsis: 1409.705 km

RAAN: 106.2791 deg

Eccentricy: 0.0003211

Argument of periapsis: 179.2614 deg

Mean anomaly: 306.9864 deg

Mean motion: 12.62606555 rev/day

Mean motion (dot): 0.00000053 rev/day2

B* drag term: 0.00023735 1/REarth

Two-line elements (TLE)

Creation date: Dec. 12, 2025, 7:16 a.m.

Reference frame: TEME

Reference center: EARTH

Epoch: Dec. 11, 2025, 8:52 p.m. UTC

TLE line 0: 0 COSMOS 2213

TLE line 1: 1 22184U 92068C 25345.86996411 .00000053 00000-0 23735-3 0 9996

TLE line 2: 2 22184 82.5992 106.2791 0003211 179.2614 306.9864 12.62606555527319

Live tracking on map

Real-time ground track for satellite COSMOS 2213.

In-orbit conjunctions

A list of the most updated potential collisions computed for object COSMOS 2213.

Target Orbit TCA Probability of collision Miss distance Type
DELTA 1 DEB HEO 2024-10-19 20:35:06 0.0001031178 979.0 (m) DEBRIS

Associated space launch

Second generation store-dump military communications satellite

COSMOS 2213 was lifted into orbit during the mission ‘Tsiklon-3 | Strela-3 83 to 88’, on board a Tsiklon-3 space rocket.

The launch took place on Oct. 20, 1992, 12:58 p.m. from 32/1.

For more information about the launch, click the button.

Launch to space Tsiklon-3 | Strela-3 83 to 88
Tsiklon-3 | Strela-3 83 to 88

Agency: N/A

Status: Launch Successful

Launch date: Oct. 20, 1992, 12:58 p.m. UTC

Rocket: Tsiklon-3

Launch pad: 32/1

Location: Plesetsk Cosmodrome, Russian Federation

...

Latest news about this satellite

There are no fresh news available about this satellite. Check back as we update our databases every day.


Newsletter sign-up

Weekly statistics, charts and insights to help you stay on top of the space industry.